Weather History for Prescott, AZ

Change the Weather History Date:

Wednesday, September 10, 2014

  Actual Average Record
Temperature  
Mean Temperature 67 °F 70 °F  
Max Temperature 81 °F 84 °F 96 °F (1990)
Min Temperature 52 °F 56 °F 47 °F (2010)
Degree Days  
Heating Degree Days 0    
Month to date heating degree days 0  
Since 1 July heating degree days 3  
Cooling Degree Days 2    
Month to date cooling degree days 56  
Year to date cooling degree days 950  
Growing Degree Days 17 (Base 50)    
Moisture  
Dew Point 50 °F    
Average Humidity 58    
Maximum Humidity 87    
Minimum Humidity 26    
Precipitation  
Precipitation 0.00 in 0.06 in 1.75 in (2013)
Month to date precipitation 1.23 0.57  
Year to date precipitation 8.70 10.23  
Sea Level Pressure  
Sea Level Pressure 29.93 in    
Wind  
Wind Speed 5 mph (WSW)    
Max Wind Speed 13 mph    
Max Gust Speed 15 mph    
Visibility 10 miles    
Events      
T = Trace of Precipitation, MM = Missing Value Source: NWS Daily Summary

Daily Weather History Graph

Daily Weather History Graph

Search for Another Location

Airport:

Trip Planner

Search our weather history database for the weather conditions in past years. The results will help you decide how hot, cold, wet, or windy it might be!

Date:

Astronomy

Sep. 10, 2014 Rise Set
Actual Time 6:09 AM MST 6:43 PM MST
Civil Twilight 5:43 AM MST 7:08 PM MST
Nautical Twilight 5:13 AM MST 7:38 PM MST
Astronomical Twilight 4:43 AM MST 8:09 PM MST
Moon 7:51 PM MST (9/10) 7:55 AM MST (9/10)
Length of Visible Light 13h 25m
Length of Day
12h 34m
Waning Gibbous, 96% of the Moon is Illuminated
Sep 10
Waning Gibbous
Sep 15
Last Quarter
Sep 23
New
Oct 1
First Quarter
Oct 8
Full

Hourly Weather History & Observations

Time (MST) Temp. Dew Point Humidity Pressure Visibility Wind Dir Wind Speed Gust Speed Precip Events Conditions
12:53 AM 57.9 °F 54.0 °F 87% 29.92 in 10.0 mi South 4.6 mph - N/A   Clear
1:53 AM 57.0 °F 53.1 °F 87% 29.91 in 10.0 mi SSW 4.6 mph - N/A   Clear
3:53 AM 55.0 °F 50.0 °F 83% 29.92 in 10.0 mi SW 4.6 mph - N/A   Clear
4:53 AM 54.0 °F 48.0 °F 80% 29.94 in 10.0 mi SSW 6.9 mph - N/A   Clear
5:53 AM 53.1 °F 48.0 °F 83% 29.96 in 10.0 mi SSW 3.5 mph - N/A   Clear
6:53 AM 54.0 °F 48.0 °F 80% 29.98 in 10.0 mi SSW 4.6 mph - N/A   Partly Cloudy
7:53 AM 61.0 °F 53.1 °F 75% 29.98 in 10.0 mi Calm Calm - N/A   Partly Cloudy
8:53 AM 66.0 °F 57.0 °F 73% 29.98 in 10.0 mi Variable 3.5 mph - N/A   Partly Cloudy
9:53 AM 70.0 °F 57.0 °F 63% 29.98 in 10.0 mi North 5.8 mph - N/A   Partly Cloudy
10:53 AM 73.0 °F 53.1 °F 49% 29.97 in 10.0 mi North 9.2 mph - N/A   Clear
11:53 AM 75.9 °F 50.0 °F 40% 29.95 in 10.0 mi North 6.9 mph - N/A   Partly Cloudy
12:53 PM 77.0 °F 46.9 °F 34% 29.94 in 10.0 mi Calm Calm - N/A   Clear
1:53 PM 79.0 °F 44.1 °F 29% 29.92 in 10.0 mi Calm Calm - N/A   Clear
2:53 PM 81.0 °F 44.1 °F 27% 29.88 in 10.0 mi NNW 8.1 mph - N/A   Partly Cloudy
3:53 PM 81.0 °F 45.0 °F 28% 29.88 in 10.0 mi NW 5.8 mph - N/A   Partly Cloudy
4:53 PM 80.1 °F 43.0 °F 27% 29.88 in 10.0 mi WNW 4.6 mph - N/A   Partly Cloudy
5:53 PM 78.1 °F 43.0 °F 29% 29.88 in 10.0 mi NW 4.6 mph - N/A   Partly Cloudy
6:53 PM 73.9 °F 46.9 °F 38% 29.89 in 10.0 mi SW 3.5 mph - N/A   Partly Cloudy
8:53 PM 66.9 °F 51.1 °F 57% 29.91 in 10.0 mi South 6.9 mph - N/A   Clear
9:53 PM 64.9 °F 51.1 °F 61% 29.91 in 10.0 mi South 6.9 mph - N/A   Clear
10:53 PM 64.0 °F 52.0 °F 65% 29.91 in 10.0 mi South 5.8 mph - N/A   Clear
11:53 PM 62.1 °F 52.0 °F 70% 29.92 in 10.0 mi Calm Calm - N/A   Clear